Weather History for KXVG - December, 2012

Change the Weather History Date:

Wednesday, December 5, 2012

  Actual Average (KPWC) Record (KPWC)
Temperature  
Mean Temperature 20 °F -  
Max Temperature 35 °F 28 °F 42 °F (2001)
Min Temperature 6 °F 15 °F -14 °F (2007)
Degree Days  
Heating Degree Days 44    
Moisture  
Dew Point 13 °F    
Average Humidity 72    
Maximum Humidity 100    
Minimum Humidity 51    
Precipitation  
Precipitation 0.00 in - - ()
Sea Level Pressure  
Sea Level Pressure 30.06 in    
Wind  
Wind Speed 5 mph (SE)    
Max Wind Speed 14 mph    
Max Gust Speed 22 mph    
Visibility 10 miles    
Events      
Averages and records for this station are not official NWS values.
T = Trace of Precipitation, MM = Missing Value Source: NWS Daily Summary

Daily Weather History Graph

Daily Weather History Graph

Search for Another Location

Airport or City:

Trip Planner

Search our weather history database for the weather conditions in past years. The results will help you decide how hot, cold, wet, or windy it might be!

Date:

Astronomy

Dec. 05, 2012 Rise Set
Actual Time 7:47 AM CST 4:28 PM CST
Civil Twilight 7:12 AM CST 5:03 PM CST
Nautical Twilight 6:33 AM CST 5:41 PM CST
Astronomical Twilight 5:56 AM CST 6:18 PM CST
Moon 11:38 PM CST (12/5) 11:53 AM CST (12/5)
Length of Visible Light 9h 51m
Length of Day
8h 41m
Waning Gibbous, 59% of the Moon is Illuminated
Dec 5
Waning Gibbous
Dec 6
Last Quarter
Dec 13
New
Dec 19
First Quarter
Dec 28
Full

Hourly Weather History & Observations

Time (CST) Temp. Windchill Dew Point Humidity Pressure Visibility Wind Dir Wind Speed Gust Speed Precip Events Conditions
12:16 AM 8.6 °F - 6.8 °F 92% 30.36 in 10.0 mi Calm Calm - N/A   Clear
12:36 AM 6.8 °F - 6.8 °F 100% 30.36 in 10.0 mi Calm Calm - N/A   Clear
12:56 AM 6.8 °F - 6.8 °F 100% 30.36 in 10.0 mi Calm Calm - N/A   Clear
1:16 AM 6.8 °F - 5.0 °F 92% 30.36 in 10.0 mi Calm Calm - N/A   Clear
1:36 AM 6.8 °F - 5.0 °F 92% 30.35 in 10.0 mi Calm Calm - N/A   Clear
1:56 AM 6.8 °F - 5.0 °F 92% 30.35 in 10.0 mi Calm Calm - N/A   Clear
2:16 AM 6.8 °F - 5.0 °F 92% 30.34 in 10.0 mi Calm Calm - N/A   Clear
2:36 AM 8.6 °F - 6.8 °F 92% 30.35 in 10.0 mi Calm Calm - N/A   Clear
2:56 AM 8.6 °F - 6.8 °F 92% 30.35 in 10.0 mi Calm Calm - N/A   Clear
3:16 AM 8.6 °F - 6.8 °F 92% 30.35 in 10.0 mi Calm Calm - N/A   Clear
3:36 AM 8.6 °F - 6.8 °F 92% 30.34 in 10.0 mi Calm Calm - N/A   Clear
3:56 AM 8.6 °F - 6.8 °F 92% 30.33 in 10.0 mi Calm Calm - N/A   Clear
4:16 AM 10.4 °F - 8.6 °F 92% 30.31 in 10.0 mi Calm Calm - N/A   Clear
4:36 AM 10.4 °F - 8.6 °F 92% 30.30 in 10.0 mi Calm Calm - N/A   Clear
4:56 AM 10.4 °F - 8.6 °F 92% 30.30 in 10.0 mi Calm Calm - N/A   Clear
5:16 AM 10.4 °F 2.2 °F 8.6 °F 92% 30.30 in 10.0 mi South 4.6 mph - N/A   Clear
5:36 AM 10.4 °F 2.2 °F 8.6 °F 92% 30.29 in 10.0 mi SE 4.6 mph - N/A   Clear
5:56 AM 10.4 °F 4.0 °F 8.6 °F 92% 30.30 in 10.0 mi SE 3.5 mph - N/A   Clear
6:16 AM 12.2 °F 4.3 °F 8.6 °F 85% 30.29 in 10.0 mi SE 4.6 mph - N/A   Clear
6:36 AM 12.2 °F 2.9 °F 8.6 °F 85% 30.29 in 10.0 mi SE 5.8 mph - N/A   Clear
6:56 AM 12.2 °F 6.1 °F 10.4 °F 92% 30.29 in 10.0 mi SE 3.5 mph - N/A   Clear
8:56 AM 15.8 °F 7.2 °F 12.2 °F 86% 30.25 in 10.0 mi SE 5.8 mph - N/A   Clear
9:16 AM 15.8 °F 4.2 °F 12.2 °F 86% 30.25 in 10.0 mi SE 9.2 mph - N/A   Clear
9:36 AM 15.8 °F 5.1 °F 12.2 °F 86% 30.23 in 10.0 mi SE 8.1 mph - N/A   Clear
9:56 AM 17.6 °F 7.3 °F 14.0 °F 86% 30.22 in 10.0 mi SE 8.1 mph - N/A   Clear
10:16 AM 17.6 °F 7.3 °F 14.0 °F 86% 30.22 in 10.0 mi SE 8.1 mph 17.3 mph N/A   Clear
10:36 AM 19.4 °F 8.6 °F 15.8 °F 86% 30.20 in 10.0 mi SE 9.2 mph 17.3 mph N/A   Clear
10:56 AM 21.2 °F 10.9 °F 15.8 °F 80% 30.19 in 10.0 mi SE 9.2 mph 12.7 mph N/A   Clear
11:16 AM 21.2 °F 10.1 °F 15.8 °F 80% 30.16 in 10.0 mi SE 10.4 mph 16.1 mph N/A   Clear
11:36 AM 21.2 °F 10.1 °F 15.8 °F 80% 30.14 in 10.0 mi ESE 10.4 mph 19.6 mph N/A   Clear
11:56 AM 24.8 °F 13.4 °F 15.8 °F 69% 30.12 in 10.0 mi ESE 12.7 mph 19.6 mph N/A   Clear
12:16 PM 24.8 °F 13.4 °F 14.0 °F 64% 30.10 in 10.0 mi SE 12.7 mph 21.9 mph N/A   Clear
12:56 PM 26.6 °F 16.8 °F 12.2 °F 55% 30.06 in 10.0 mi SE 10.4 mph 20.7 mph N/A   Clear
1:16 PM 26.6 °F 17.5 °F 12.2 °F 55% 30.04 in 10.0 mi SE 9.2 mph - N/A   Clear
1:36 PM 26.6 °F 19.1 °F 12.2 °F 55% 30.02 in 10.0 mi ESE 6.9 mph - N/A   Clear
1:56 PM 26.6 °F 16.8 °F 12.2 °F 55% 30.00 in 10.0 mi ESE 10.4 mph 20.7 mph N/A   Clear
2:16 PM 28.4 °F 19.7 °F 12.2 °F 51% 29.97 in 10.0 mi SE 9.2 mph 19.6 mph N/A   Clear
2:36 PM 28.4 °F 19.1 °F 12.2 °F 51% 29.96 in 10.0 mi SE 10.4 mph 17.3 mph N/A   Clear
2:56 PM 28.4 °F 21.2 °F 12.2 °F 51% 29.95 in 10.0 mi SE 6.9 mph - N/A   Clear
3:16 PM 28.4 °F 19.1 °F 14.0 °F 55% 29.94 in 10.0 mi SE 10.4 mph 17.3 mph N/A   Clear
3:36 PM 28.4 °F 19.1 °F 14.0 °F 55% 29.93 in 10.0 mi SE 10.4 mph 18.4 mph N/A   Clear
3:56 PM 28.4 °F 19.1 °F 15.8 °F 59% 29.93 in 10.0 mi SSE 10.4 mph - N/A   Clear
4:16 PM 28.4 °F 17.5 °F 15.8 °F 59% 29.91 in 10.0 mi SE 13.8 mph 17.3 mph N/A   Clear
4:36 PM 28.4 °F 18.0 °F 15.8 °F 59% 29.91 in 10.0 mi SSE 12.7 mph 18.4 mph N/A   Clear
4:56 PM 30.2 °F 20.2 °F 15.8 °F 55% 29.90 in 10.0 mi SSE 12.7 mph - N/A   Clear
5:16 PM 30.2 °F 21.3 °F 15.8 °F 55% 29.88 in 10.0 mi SE 10.4 mph 21.9 mph N/A   Clear
5:36 PM 28.4 °F 18.5 °F 15.8 °F 59% 29.87 in 10.0 mi SSE 11.5 mph 17.3 mph N/A   Clear
5:56 PM 30.2 °F 20.2 °F 17.6 °F 60% 29.86 in 10.0 mi SSE 12.7 mph 18.4 mph N/A   Clear
6:16 PM 30.2 °F 20.8 °F 17.6 °F 60% 29.85 in 10.0 mi SSE 11.5 mph 20.7 mph N/A   Clear
6:36 PM 30.2 °F 20.2 °F 17.6 °F 60% 29.84 in 10.0 mi SSE 12.7 mph 19.6 mph N/A   Clear
6:56 PM 30.2 °F 20.8 °F 17.6 °F 60% 29.83 in 10.0 mi SSE 11.5 mph 17.3 mph N/A   Clear
7:16 PM 30.2 °F 21.3 °F 17.6 °F 60% 29.83 in 10.0 mi SSE 10.4 mph - N/A   Clear
7:36 PM 30.2 °F 20.8 °F 17.6 °F 60% 29.83 in 10.0 mi SSE 11.5 mph - N/A   Scattered Clouds
7:56 PM 30.2 °F 20.2 °F 17.6 °F 60% 29.82 in 10.0 mi SSE 12.7 mph 18.4 mph N/A   Mostly Cloudy
8:16 PM 30.2 °F 19.8 °F 17.6 °F 60% 29.81 in 10.0 mi SSE 13.8 mph 20.7 mph N/A   Mostly Cloudy
8:36 PM 30.2 °F 19.8 °F 17.6 °F 60% 29.79 in 10.0 mi SSE 13.8 mph 18.4 mph N/A   Mostly Cloudy
8:56 PM 30.2 °F 21.3 °F 17.6 °F 60% 29.77 in 10.0 mi SSE 10.4 mph 17.3 mph N/A   Scattered Clouds
9:16 PM 30.2 °F 20.8 °F 17.6 °F 60% 29.77 in 10.0 mi SSE 11.5 mph 18.4 mph N/A   Clear
9:36 PM 32.0 °F 23.0 °F 19.4 °F 60% 29.76 in 10.0 mi SSE 11.5 mph 18.4 mph N/A   Clear
9:56 PM 33.8 °F 25.8 °F 19.4 °F 56% 29.75 in 10.0 mi South 10.4 mph 18.4 mph N/A   Clear
10:16 PM 33.8 °F 25.3 °F 19.4 °F 56% 29.74 in 10.0 mi South 11.5 mph - N/A   Clear
10:36 PM 33.8 °F 24.3 °F 21.2 °F 60% 29.74 in 10.0 mi SSE 13.8 mph 21.9 mph N/A   Scattered Clouds
10:56 PM 35.6 °F 27.5 °F 21.2 °F 56% 29.73 in 10.0 mi SSE 11.5 mph 19.6 mph N/A   Scattered Clouds
11:16 PM 35.6 °F 26.6 °F 21.2 °F 56% 29.74 in 10.0 mi South 13.8 mph 18.4 mph N/A   Scattered Clouds
11:36 PM 35.6 °F 28.0 °F 21.2 °F 56% 29.73 in 10.0 mi South 10.4 mph - N/A   Clear
11:56 PM 35.6 °F 28.0 °F 21.2 °F 56% 29.72 in 10.0 mi South 10.4 mph 18.4 mph N/A   Clear